Flag Weather past 2 weeks in Richmond, British Columbia, Canada

Now
52 °F

Overcast.


Feels Like: 49 °F
Forecast: 49 / 53 °F
Wind: 9 mph from East

Location: Vancouver International Air-Port

Current Time: Nov 26, 2014 at 5:56:36 PM

Latest Report: Nov 26, 2014 at 5:00 PM


Visibility: 15 mi

Pressure: 29.91 "Hg

Humidity: 94%

Dew point: 50 °F

Location of RichmondLocation

Historic Weather in Richmond — Graph

°F

Richmond temperature yesterday

Maximum temperature yesterday: 46 °F (at 11:00 AM)
Minimum temperature yesterday: 41 °F (at 11:00 PM)
Average temperature yesterday: 44 °F

Past Weeks' High & Low Weather Summary

 TemperatureHumidityPressure
High52 °F (Nov 26, 4:00 PM)100% (Nov 18, 3:00 AM)30.57 "Hg (Nov 18, 3:00 AM)
Low23 °F (Nov 14, 6:00 AM)25% (Nov 12, 12:00 PM)29.26 "Hg (Nov 21, 7:00 PM)
Average40 °F82%30.11 "Hg
* Reported Nov 11 4:00 PM — Nov 26 4:00 PM, Richmond, Weather by CustomWeather, © 2014

Note: Actual official high and low records may vary slightly from our data, if they occured in-between our weather recording intervals... More about our weather records

Advertising

Richmond weather history for previous 24 hours

 ConditionsComfort  
Time TempWeatherWind HumidityBarometerVisibility
4:00 PM
Nov 26
52 °FCloudy.9 mph94%29.95 "Hg15 mi
3:00 PM50 °FCloudy.10 mph100%29.96 "Hg15 mi
2:00 PM50 °FCloudy.12 mph100%29.97 "Hg15 mi
1:00 PM50 °FMostly cloudy.9 mph100%30.01 "Hg12 mi
12:00 PM50 °FMostly cloudy.9 mph94%30.03 "Hg10 mi
11:00 AM48 °FMostly cloudy.7 mph94%30.05 "Hg15 mi
10:00 AM46 °FLow clouds.8 mph100%30.04 "Hg12 mi
9:00 AM45 °FMostly cloudy.7 mph100%30.06 "Hg15 mi
8:00 AM43 °FMostly cloudy.7 mph100%30.08 "Hg15 mi
7:00 AM43 °FMostly cloudy.5 mph100%30.08 "Hg15 mi
6:00 AM43 °FMostly cloudy.5 mph100%30.09 "Hg12 mi
5:00 AM43 °FOvercast.8 mph93%30.09 "Hg10 mi
4:00 AM43 °FLight rain. Fog.5 mph93%30.12 "Hg8 mi
3:47 AM43 °FLight rain. Mostly cloudy.6 mph93%30.11 "Hg8 mi
3:00 AM43 °FLight rain. Mostly cloudy.3 mph93%30.13 "Hg8 mi
2:00 AM43 °FLight rain. Fog.3 mph93%30.14 "Hg6 mi
1:00 AM43 °FLight rain. Fog.3 mph93%30.14 "Hg3 mi
12:00 AM43 °FDrizzle. Fog.6 mph93%30.15 "Hg3 mi
11:00 PM
Nov 25
41 °FLight rain. Fog.5 mph100%30.15 "Hg4 mi
10:47 PM43 °FLight rain. Fog.7 mph93%30.15 "Hg6 mi
10:00 PM43 °FLight rain. Fog.5 mph93%30.15 "Hg6 mi
9:00 PM43 °FRain. Fog.3 mph93%30.14 "Hg6 mi
8:00 PM43 °FRain. Fog.3 mph93%30.16 "Hg5 mi
7:00 PM43 °FRain. Fog.7 mph93%30.16 "Hg5 mi
6:00 PM43 °FRain. Overcast.3 mph100%30.17 "Hg8 mi
5:00 PM45 °FRain. Mostly cloudy.5 mph93%30.18 "Hg8 mi
Weather by CustomWeather, © 2014

See weather overviewHow to use our weather pages